SBI6502 UUDD-UNOO

Flight info

Callsign SBI6502
Flight time 2h 58m
Altitude 35000
Route KOGOM L94 EKPIR M864 INKEB L94 NAMER T765 GEMKI L94 ASKAL/K0865F350 L94 OKETI B236 BUNET
Aircraft A321/M-SDE3FGHIRWY/LB1

Departure

Time 2026-04-25 13:48
Airport Domodedovo International Airport (UUDD)

Arrival

Time 2026-04-25 16:47
Airport Omsk Central Airport (UNOO)
Time Latitude Longitude Altitude Speed Heading
2026-04-25 13:23 55.41252 37.89860 582 ft 0 kts 65°
2026-04-25 13:35 55.41249 37.89850 580 ft 3 kts 65°
2026-04-25 13:36 55.41239 37.89814 576 ft 3 kts 63°
2026-04-25 13:36 55.41229 37.89780 579 ft 3 kts 65°
2026-04-25 13:36 55.41223 37.89757 580 ft 3 kts 30°
2026-04-25 13:36 55.41210 37.89739 580 ft 3 kts 52°
2026-04-25 13:37 55.41198 37.89707 577 ft 3 kts 65°
2026-04-25 13:37 55.41190 37.89670 581 ft 3 kts 71°
2026-04-25 13:37 55.41184 37.89640 579 ft 3 kts 69°
2026-04-25 13:37 55.41176 37.89604 583 ft 3 kts 66°
2026-04-25 13:38 55.41166 37.89569 581 ft 3 kts 57°
2026-04-25 13:38 55.41163 37.89562 580 ft 0 kts 56°
2026-04-25 13:40 55.41170 37.89579 583 ft 4 kts 56°
2026-04-25 13:40 55.41183 37.89638 583 ft 7 kts 89°
2026-04-25 13:41 55.41145 37.89713 577 ft 0 kts 144°
2026-04-25 13:42 55.41138 37.89723 576 ft 6 kts 144°
2026-04-25 13:42 55.41082 37.89793 573 ft 12 kts 145°
2026-04-25 13:42 55.41012 37.89862 571 ft 11 kts 174°
2026-04-25 13:43 55.40958 37.89778 570 ft 11 kts 233°
2026-04-25 13:43 55.40913 37.89663 573 ft 12 kts 236°
2026-04-25 13:43 55.40862 37.89551 577 ft 12 kts 222°
2026-04-25 13:43 55.40808 37.89434 570 ft 13 kts 235°
2026-04-25 13:44 55.40762 37.89311 570 ft 10 kts 236°
2026-04-25 13:44 55.40701 37.89274 571 ft 11 kts 159°
2026-04-25 13:44 55.40633 37.89352 571 ft 13 kts 146°
2026-04-25 13:44 55.40556 37.89445 570 ft 14 kts 144°
2026-04-25 13:45 55.40469 37.89551 568 ft 16 kts 146°
2026-04-25 13:45 55.40369 37.89668 565 ft 18 kts 144°
2026-04-25 13:45 55.40260 37.89801 566 ft 20 kts 146°
2026-04-25 13:45 55.40140 37.89945 563 ft 22 kts 145°
2026-04-25 13:46 55.40016 37.90094 560 ft 22 kts 146°
2026-04-25 13:46 55.39891 37.90245 550 ft 22 kts 146°
2026-04-25 13:46 55.39766 37.90395 547 ft 22 kts 146°
2026-04-25 13:46 55.39660 37.90522 545 ft 13 kts 148°
2026-04-25 13:47 55.39587 37.90502 544 ft 11 kts 226°
2026-04-25 13:47 55.39549 37.90393 543 ft 11 kts 243°
2026-04-25 13:47 55.39561 37.90273 543 ft 10 kts 321°
2026-04-25 13:47 55.39648 37.90173 545 ft 32 kts 325°
2026-04-25 13:48 55.40034 37.89704 560 ft 99 kts 326°
2026-04-25 13:48 55.40755 37.88834 575 ft 150 kts 325°
2026-04-25 13:48 55.41731 37.87690 685 ft 180 kts 324°
2026-04-25 13:48 55.42676 37.86337 1453 ft 172 kts 311°
2026-04-25 13:49 55.43474 37.84757 2061 ft 176 kts 309°
2026-04-25 13:49 55.44313 37.83017 2259 ft 196 kts 308°
2026-04-25 13:49 55.45208 37.81166 2722 ft 200 kts 308°
2026-04-25 13:49 55.46122 37.79292 3196 ft 203 kts 309°
2026-04-25 13:50 55.47224 37.77729 3676 ft 208 kts 332°
2026-04-25 13:50 55.48564 37.76839 4152 ft 211 kts 338°
2026-04-25 13:50 55.49989 37.75934 4473 ft 222 kts 337°
2026-04-25 13:50 55.51501 37.75016 4781 ft 238 kts 344°
2026-04-25 13:51 55.53185 37.74958 5165 ft 252 kts 11°
2026-04-25 13:51 55.54847 37.76290 5578 ft 272 kts 30°
2026-04-25 13:51 55.56486 37.78020 6263 ft 277 kts 28°
2026-04-25 13:51 55.58152 37.79751 7022 ft 278 kts 28°
2026-04-25 13:52 55.59833 37.81484 7760 ft 281 kts 27°
2026-04-25 13:52 55.61527 37.83229 8510 ft 283 kts 27°
2026-04-25 13:52 55.63124 37.85299 9223 ft 290 kts 45°
2026-04-25 13:52 55.64158 37.88407 9867 ft 299 kts 71°
2026-04-25 13:53 55.64382 37.90836 10258 ft 305 kts 89°
2026-04-25 13:53 55.64059 37.94587 10808 ft 312 kts 101°
2026-04-25 13:53 55.63574 37.98364 11409 ft 316 kts 102°
2026-04-25 13:53 55.63068 38.02236 12031 ft 320 kts 102°
2026-04-25 13:54 55.62568 38.06042 12633 ft 324 kts 101°
2026-04-25 13:54 55.62055 38.09959 13238 ft 328 kts 101°
2026-04-25 13:54 55.61540 38.13919 13787 ft 332 kts 101°
2026-04-25 13:54 55.61016 38.17986 14053 ft 347 kts 101°
2026-04-25 13:55 55.60477 38.22225 14349 ft 358 kts 101°
2026-04-25 13:55 55.59927 38.26557 14839 ft 363 kts 101°
2026-04-25 13:55 55.59367 38.30938 15362 ft 367 kts 101°
2026-04-25 13:55 55.58800 38.35378 15894 ft 371 kts 101°
2026-04-25 13:56 55.58368 38.39891 16389 ft 374 kts 91°
2026-04-25 13:56 55.58440 38.44477 16896 ft 374 kts 78°
2026-04-25 13:56 55.59036 38.48941 17406 ft 373 kts 66°
2026-04-25 13:56 55.60102 38.53032 17904 ft 371 kts 54°
2026-04-25 13:57 55.61437 38.57033 18368 ft 374 kts 54°
2026-04-25 13:57 55.62311 38.59660 18721 ft 374 kts 54°
2026-04-25 13:57 55.64063 38.64947 19404 ft 377 kts 54°
2026-04-25 13:57 55.65390 38.68962 19903 ft 379 kts 54°
2026-04-25 13:58 55.66724 38.73007 20384 ft 382 kts 54°
2026-04-25 13:58 55.68068 38.77084 20826 ft 385 kts 54°
2026-04-25 13:58 55.69422 38.81205 21282 ft 388 kts 55°
2026-04-25 13:58 55.70783 38.85362 21716 ft 391 kts 55°
2026-04-25 13:59 55.72156 38.89564 22164 ft 394 kts 55°
2026-04-25 13:59 55.73655 38.93623 22569 ft 393 kts 46°
2026-04-25 13:59 55.75470 38.97239 22977 ft 392 kts 41°
2026-04-25 13:59 55.77356 39.00764 23351 ft 395 kts 41°
2026-04-25 14:00 55.78614 39.03119 23582 ft 397 kts 41°
2026-04-25 14:00 55.81162 39.07910 24022 ft 400 kts 41°
2026-04-25 14:00 55.83080 39.11533 24366 ft 403 kts 42°
2026-04-25 14:00 55.84859 39.15435 24701 ft 411 kts 52°
2026-04-25 14:01 55.86296 39.19925 24861 ft 423 kts 60°
2026-04-25 14:01 55.87603 39.24668 24991 ft 431 kts 60°
2026-04-25 14:01 55.88939 39.29488 25118 ft 438 kts 60°
2026-04-25 14:01 55.90292 39.34336 25243 ft 446 kts 60°
2026-04-25 14:02 55.91702 39.39386 25383 ft 453 kts 60°
2026-04-25 14:02 55.93114 39.44456 25506 ft 460 kts 60°
2026-04-25 14:02 55.94543 39.49604 25645 ft 467 kts 60°
2026-04-25 14:02 55.95500 39.53067 25719 ft 471 kts 60°
2026-04-25 14:03 55.97447 39.60152 25887 ft 479 kts 60°
2026-04-25 14:03 55.98922 39.65537 26059 ft 485 kts 60°
2026-04-25 14:03 56.00422 39.70972 26182 ft 491 kts 62°
2026-04-25 14:03 56.01709 39.76656 26423 ft 497 kts 69°
2026-04-25 14:04 56.02600 39.82639 26747 ft 500 kts 77°
2026-04-25 14:04 56.03019 39.88820 27100 ft 502 kts 86°
2026-04-25 14:04 56.03116 39.94973 27445 ft 502 kts 87°
2026-04-25 14:04 56.03200 40.01287 27810 ft 501 kts 87°
2026-04-25 14:05 56.03282 40.07516 28169 ft 501 kts 87°
2026-04-25 14:05 56.03363 40.13662 28531 ft 500 kts 87°
2026-04-25 14:05 56.03440 40.19872 28899 ft 499 kts 87°
2026-04-25 14:05 56.03514 40.26071 29247 ft 499 kts 88°
2026-04-25 14:06 56.03582 40.32285 29590 ft 499 kts 88°
2026-04-25 14:06 56.03646 40.38480 29917 ft 498 kts 88°
2026-04-25 14:06 56.03709 40.44689 30200 ft 498 kts 88°
2026-04-25 14:06 56.03768 40.50879 30494 ft 498 kts 88°
2026-04-25 14:07 56.03826 40.57054 30781 ft 497 kts 88°
2026-04-25 14:07 56.03880 40.63244 31072 ft 497 kts 88°
2026-04-25 14:07 56.03933 40.69416 31363 ft 496 kts 88°
2026-04-25 14:07 56.03976 40.75586 31648 ft 496 kts 88°
2026-04-25 14:08 56.04023 40.81750 31903 ft 495 kts 88°
2026-04-25 14:08 56.04070 40.87921 32184 ft 495 kts 88°
2026-04-25 14:08 56.04113 40.94079 32459 ft 495 kts 88°
2026-04-25 14:08 56.04147 41.00233 32729 ft 495 kts 88°
2026-04-25 14:09 56.04175 41.06389 32999 ft 494 kts 88°
2026-04-25 14:09 56.04203 41.12546 33265 ft 494 kts 88°
2026-04-25 14:09 56.04230 41.18698 33527 ft 494 kts 88°
2026-04-25 14:09 56.04248 41.22770 33710 ft 494 kts 88°
2026-04-25 14:10 56.04278 41.30892 33962 ft 494 kts 88°
2026-04-25 14:10 56.04300 41.37040 34155 ft 493 kts 88°
2026-04-25 14:10 56.04310 41.43174 34345 ft 493 kts 88°
2026-04-25 14:10 56.04316 41.49304 34550 ft 493 kts 88°
2026-04-25 14:11 56.04321 41.55460 34653 ft 494 kts 88°
2026-04-25 14:11 56.04324 41.67760 34689 ft 495 kts 88°
2026-04-25 14:12 56.04327 41.80080 34692 ft 495 kts 88°
2026-04-25 14:12 56.04318 41.92393 34686 ft 495 kts 89°
2026-04-25 14:13 56.04289 42.04699 34690 ft 495 kts 89°
2026-04-25 14:13 56.04241 42.17008 34699 ft 495 kts 89°
2026-04-25 14:14 56.04185 42.29312 34689 ft 495 kts 89°
2026-04-25 14:14 56.04116 42.41631 34679 ft 495 kts 89°
2026-04-25 14:15 56.04032 42.53884 34683 ft 495 kts 89°
2026-04-25 14:15 56.03911 42.66200 34682 ft 495 kts 90°
2026-04-25 14:16 56.03744 42.78532 34683 ft 496 kts 90°
2026-04-25 14:16 56.03550 42.90871 34685 ft 496 kts 90°
2026-04-25 14:17 56.03364 43.03192 34697 ft 496 kts 90°
2026-04-25 14:17 56.03176 43.15504 34692 ft 496 kts 90°
2026-04-25 14:18 56.02967 43.27833 34679 ft 496 kts 90°
2026-04-25 14:18 56.03292 43.40086 34679 ft 493 kts 81°
2026-04-25 14:19 56.04135 43.52253 34676 ft 493 kts 81°
2026-04-25 14:19 56.04955 43.64442 34676 ft 493 kts 81°
2026-04-25 14:20 56.05765 43.76626 34696 ft 493 kts 81°
2026-04-25 14:20 56.06552 43.88740 34687 ft 493 kts 81°
2026-04-25 14:21 56.07332 44.00941 34677 ft 493 kts 81°
2026-04-25 14:21 56.08106 44.13159 34664 ft 494 kts 81°
2026-04-25 14:22 56.08863 44.25391 34662 ft 494 kts 81°
2026-04-25 14:22 56.09614 44.37625 34666 ft 494 kts 81°
2026-04-25 14:23 56.10355 44.49864 34679 ft 494 kts 81°
2026-04-25 14:23 56.11078 44.62103 34673 ft 494 kts 82°
2026-04-25 14:24 56.11109 44.74436 34665 ft 496 kts 90°
2026-04-25 14:24 56.10852 44.86800 34654 ft 496 kts 90°
2026-04-25 14:25 56.10591 44.99158 34661 ft 497 kts 90°
2026-04-25 14:25 56.10314 45.11518 34657 ft 497 kts 90°
2026-04-25 14:26 56.10020 45.23808 34658 ft 497 kts 90°
2026-04-25 14:26 56.09719 45.36181 34658 ft 497 kts 90°
2026-04-25 14:27 56.09409 45.48553 34656 ft 497 kts 90°
2026-04-25 14:27 56.09090 45.60920 34649 ft 497 kts 90°
2026-04-25 14:28 56.08755 45.73274 34655 ft 497 kts 91°
2026-04-25 14:28 56.08414 45.85624 34657 ft 497 kts 91°
2026-04-25 14:29 56.08063 45.97983 34658 ft 497 kts 91°
2026-04-25 14:29 56.07686 46.10341 34677 ft 497 kts 91°
2026-04-25 14:30 56.07296 46.22682 34667 ft 497 kts 91°
2026-04-25 14:30 56.06694 46.41108 34650 ft 496 kts 91°
2026-04-25 14:31 56.06292 46.53449 34648 ft 496 kts 90°
2026-04-25 14:31 56.06267 46.65776 34646 ft 494 kts 85°
2026-04-25 14:32 56.06540 46.78063 34642 ft 494 kts 85°
2026-04-25 14:32 56.06760 46.90381 34664 ft 495 kts 86°
2026-04-25 14:33 56.06851 47.02688 34644 ft 495 kts 87°
2026-04-25 14:33 56.06882 47.14940 34635 ft 495 kts 87°
2026-04-25 14:34 56.06942 47.27344 34625 ft 495 kts 87°
2026-04-25 14:34 56.07006 47.39584 34626 ft 495 kts 87°
2026-04-25 14:35 56.07065 47.51922 34623 ft 495 kts 87°
2026-04-25 14:35 56.07100 47.64251 34659 ft 495 kts 87°
2026-04-25 14:36 56.07112 47.74597 34646 ft 496 kts 87°
2026-04-25 14:36 56.07116 47.86864 34633 ft 496 kts 88°
2026-04-25 14:37 56.07110 47.99212 34621 ft 496 kts 88°
2026-04-25 14:37 56.07106 48.11563 34615 ft 496 kts 88°
2026-04-25 14:38 56.07089 48.23904 34615 ft 496 kts 88°
2026-04-25 14:38 56.07056 48.36260 34610 ft 496 kts 88°
2026-04-25 14:39 56.07011 48.48604 34632 ft 496 kts 88°
2026-04-25 14:39 56.06948 48.60947 34620 ft 495 kts 88°
2026-04-25 14:40 56.06873 48.73268 34619 ft 495 kts 88°
2026-04-25 14:40 56.06786 48.85583 34611 ft 495 kts 88°
2026-04-25 14:41 56.06693 48.97832 34607 ft 494 kts 88°
2026-04-25 14:41 56.06584 49.10144 34607 ft 494 kts 88°
2026-04-25 14:42 56.06482 49.20439 34620 ft 494 kts 89°
2026-04-25 14:42 56.06329 49.34730 34609 ft 493 kts 89°
2026-04-25 14:43 56.06187 49.47010 34606 ft 493 kts 89°
2026-04-25 14:43 56.06031 49.59277 34603 ft 493 kts 89°
2026-04-25 14:44 56.05864 49.71564 34602 ft 493 kts 89°
2026-04-25 14:44 56.05684 49.83757 34607 ft 493 kts 89°
2026-04-25 14:45 56.05489 49.96102 34618 ft 493 kts 90°
2026-04-25 14:45 56.05289 50.08282 34607 ft 493 kts 90°
2026-04-25 14:46 56.05070 50.20563 34602 ft 493 kts 90°
2026-04-25 14:46 56.04830 50.32831 34605 ft 493 kts 90°
2026-04-25 14:47 56.04632 50.43024 34610 ft 493 kts 90°
2026-04-25 14:47 56.04350 50.57282 34606 ft 493 kts 90°
2026-04-25 14:48 56.04086 50.69533 34620 ft 493 kts 91°
2026-04-25 14:48 56.03801 50.81804 34607 ft 493 kts 91°
2026-04-25 14:49 56.03658 50.94055 34614 ft 492 kts 88°
2026-04-25 14:49 56.03779 51.06292 34596 ft 492 kts 87°
2026-04-25 14:50 56.03911 51.18526 34605 ft 492 kts 88°
2026-04-25 14:50 56.03952 51.30765 34586 ft 492 kts 89°
2026-04-25 14:51 56.03942 51.42995 34609 ft 492 kts 89°
2026-04-25 14:51 56.03927 51.55152 34601 ft 492 kts 89°
2026-04-25 14:52 56.03917 51.67376 34591 ft 491 kts 89°
2026-04-25 14:52 56.03901 51.77622 34590 ft 492 kts 89°
2026-04-25 14:53 56.04043 51.91807 34578 ft 491 kts 85°
2026-04-25 14:53 56.04547 52.03994 34578 ft 491 kts 84°
2026-04-25 14:54 56.05091 52.16163 34584 ft 491 kts 85°
2026-04-25 14:54 56.05536 52.28345 34579 ft 491 kts 86°
2026-04-25 14:55 56.05900 52.40540 34568 ft 491 kts 86°
2026-04-25 14:55 56.06254 52.52772 34564 ft 491 kts 86°
2026-04-25 14:56 56.06625 52.64973 34567 ft 491 kts 86°
2026-04-25 14:56 56.06964 52.77193 34566 ft 492 kts 87°
2026-04-25 14:57 56.07262 52.89339 34568 ft 492 kts 87°
2026-04-25 14:57 56.07550 53.01572 34574 ft 492 kts 87°
2026-04-25 14:58 56.07832 53.13809 34577 ft 492 kts 87°
2026-04-25 14:58 56.08116 53.26071 34583 ft 492 kts 87°
2026-04-25 14:59 56.08379 53.38324 34581 ft 492 kts 87°
2026-04-25 14:59 56.08627 53.50574 34579 ft 492 kts 88°
2026-04-25 15:00 56.08860 53.62824 34580 ft 492 kts 88°
2026-04-25 15:00 56.09086 53.75075 34591 ft 492 kts 88°
2026-04-25 15:01 56.09302 53.87341 34595 ft 492 kts 88°
2026-04-25 15:01 56.09513 53.99599 34595 ft 492 kts 88°
2026-04-25 15:02 56.09710 54.11772 34609 ft 492 kts 89°
2026-04-25 15:02 56.09886 54.24038 34618 ft 492 kts 89°
2026-04-25 15:03 56.10161 54.36279 34618 ft 492 kts 82°
2026-04-25 15:03 56.11222 54.48384 34610 ft 491 kts 81°
2026-04-25 15:04 56.12286 54.60474 34626 ft 491 kts 81°
2026-04-25 15:04 56.13331 54.72576 34629 ft 491 kts 82°
2026-04-25 15:05 56.14361 54.84678 34622 ft 491 kts 82°
2026-04-25 15:06 56.15869 55.02769 34629 ft 491 kts 82°
2026-04-25 15:06 56.16864 55.14900 34630 ft 491 kts 82°
2026-04-25 15:07 56.17855 55.27016 34635 ft 491 kts 82°
2026-04-25 15:07 56.18831 55.39157 34636 ft 491 kts 83°
2026-04-25 15:08 56.19791 55.51294 34628 ft 491 kts 83°
2026-04-25 15:08 56.20742 55.63438 34635 ft 491 kts 83°
2026-04-25 15:09 56.21685 55.75597 34639 ft 491 kts 83°
2026-04-25 15:09 56.23081 55.93858 34622 ft 491 kts 84°
2026-04-25 15:10 56.23993 56.06017 34639 ft 491 kts 84°
2026-04-25 15:11 56.25342 56.24305 34647 ft 491 kts 84°
2026-04-25 15:11 56.26230 56.36400 34652 ft 491 kts 84°
2026-04-25 15:12 56.27529 56.54703 34652 ft 491 kts 85°
2026-04-25 15:12 56.28100 56.62862 34667 ft 491 kts 85°
2026-04-25 15:13 56.29661 56.85208 34654 ft 492 kts 85°
2026-04-25 15:14 56.30488 56.97429 34659 ft 492 kts 85°
2026-04-25 15:14 56.31304 57.09660 34649 ft 492 kts 85°
2026-04-25 15:15 56.32114 57.21910 34636 ft 492 kts 86°
2026-04-25 15:15 56.32906 57.34175 34626 ft 493 kts 86°
2026-04-25 15:16 56.33689 57.46453 34641 ft 493 kts 86°
2026-04-25 15:16 56.34845 57.64903 34646 ft 494 kts 87°
2026-04-25 15:17 56.35964 57.83315 34661 ft 494 kts 87°
2026-04-25 15:18 56.36705 57.95637 34653 ft 494 kts 87°
2026-04-25 15:18 56.37791 58.14132 34663 ft 494 kts 88°
2026-04-25 15:19 56.38262 58.22385 34666 ft 494 kts 88°
2026-04-25 15:19 56.39177 58.38809 34673 ft 494 kts 88°
2026-04-25 15:20 56.39866 58.51160 34676 ft 494 kts 88°
2026-04-25 15:20 56.40539 58.63507 34645 ft 494 kts 88°
2026-04-25 15:21 56.41199 58.75870 34666 ft 495 kts 89°
2026-04-25 15:21 56.41739 58.86155 34672 ft 495 kts 89°
2026-04-25 15:22 56.42374 58.98464 34675 ft 495 kts 89°
2026-04-25 15:22 56.42976 59.10844 34682 ft 493 kts 92°
2026-04-25 15:23 56.42815 59.23150 34680 ft 490 kts 96°
2026-04-25 15:23 56.42559 59.35446 34686 ft 490 kts 97°
2026-04-25 15:24 56.42292 59.47743 34692 ft 490 kts 97°
2026-04-25 15:24 56.42068 59.57967 34690 ft 490 kts 97°
2026-04-25 15:25 56.41736 59.72342 34663 ft 490 kts 97°
2026-04-25 15:25 56.41429 59.84624 34672 ft 490 kts 97°
2026-04-25 15:26 56.41112 59.96900 34665 ft 490 kts 98°
2026-04-25 15:26 56.40787 60.09194 34677 ft 490 kts 98°
2026-04-25 15:27 56.40454 60.21477 34684 ft 490 kts 98°
2026-04-25 15:28 56.39960 60.39912 34686 ft 490 kts 98°
2026-04-25 15:28 56.39617 60.52185 34684 ft 489 kts 98°
2026-04-25 15:29 56.39239 60.64384 34669 ft 490 kts 99°
2026-04-25 15:29 56.38829 60.76663 34637 ft 490 kts 99°
2026-04-25 15:30 56.38408 60.88948 34650 ft 490 kts 99°
2026-04-25 15:30 56.37970 61.01233 34658 ft 491 kts 99°
2026-04-25 15:31 56.37551 61.13541 34666 ft 491 kts 99°
2026-04-25 15:31 56.37160 61.25850 34652 ft 492 kts 99°
2026-04-25 15:32 56.36753 61.38165 34664 ft 492 kts 100°
2026-04-25 15:32 56.36312 61.50468 34673 ft 491 kts 100°
2026-04-25 15:33 56.35622 61.68915 34679 ft 492 kts 100°
2026-04-25 15:33 56.35155 61.81219 34643 ft 492 kts 100°
2026-04-25 15:34 56.34684 61.93443 34627 ft 491 kts 101°
2026-04-25 15:34 56.34268 62.03743 34647 ft 491 kts 101°
2026-04-25 15:35 56.33427 62.24176 34679 ft 491 kts 101°
2026-04-25 15:36 56.32647 62.42608 34691 ft 491 kts 101°
2026-04-25 15:36 56.32113 62.54890 34693 ft 491 kts 101°
2026-04-25 15:37 56.31558 62.67153 34681 ft 491 kts 102°
2026-04-25 15:37 56.30993 62.79333 34688 ft 491 kts 102°
2026-04-25 15:38 56.30416 62.91573 34695 ft 491 kts 102°
2026-04-25 15:38 56.29824 63.03897 34696 ft 491 kts 102°
2026-04-25 15:39 56.29229 63.16051 34710 ft 491 kts 102°
2026-04-25 15:39 56.28615 63.28280 34684 ft 491 kts 102°
2026-04-25 15:40 56.28201 63.36457 34700 ft 490 kts 103°
2026-04-25 15:40 56.27358 63.52712 34708 ft 489 kts 103°
2026-04-25 15:41 56.26703 63.64892 34717 ft 489 kts 103°
2026-04-25 15:41 56.26031 63.77060 34714 ft 489 kts 103°
2026-04-25 15:42 56.25345 63.89231 34690 ft 488 kts 103°
2026-04-25 15:42 56.24652 64.01368 34683 ft 487 kts 103°
2026-04-25 15:43 56.23953 64.13486 34701 ft 487 kts 103°
2026-04-25 15:43 56.23241 64.25600 34714 ft 487 kts 104°
2026-04-25 15:44 56.22513 64.37687 34723 ft 486 kts 104°
2026-04-25 15:44 56.21771 64.49761 34723 ft 486 kts 104°
2026-04-25 15:45 56.21020 64.61755 34726 ft 486 kts 104°
2026-04-25 15:45 56.20509 64.69835 34704 ft 486 kts 104°
2026-04-25 15:46 56.19489 64.85885 34722 ft 486 kts 104°
2026-04-25 15:46 56.18711 64.97935 34685 ft 485 kts 105°
2026-04-25 15:47 56.17916 65.09974 34714 ft 485 kts 105°
2026-04-25 15:47 56.17109 65.21927 34729 ft 485 kts 105°
2026-04-25 15:48 56.16283 65.33953 34698 ft 485 kts 105°
2026-04-25 15:48 56.15452 65.45963 34717 ft 485 kts 105°
2026-04-25 15:49 56.14621 65.57970 34738 ft 485 kts 105°
2026-04-25 15:49 56.13779 65.69990 34746 ft 485 kts 105°
2026-04-25 15:50 56.12916 65.81992 34749 ft 485 kts 105°
2026-04-25 15:50 56.12045 65.93977 34757 ft 485 kts 106°
2026-04-25 15:51 56.11462 66.01924 34733 ft 485 kts 106°
2026-04-25 15:51 56.10278 66.17922 34760 ft 484 kts 106°
2026-04-25 15:52 56.09369 66.29874 34767 ft 484 kts 106°
2026-04-25 15:52 56.08450 66.41816 34772 ft 484 kts 106°
2026-04-25 15:53 56.07533 66.53655 34773 ft 483 kts 106°
2026-04-25 15:53 56.06597 66.65593 34736 ft 483 kts 107°
2026-04-25 15:54 56.05651 66.77495 34759 ft 483 kts 107°
2026-04-25 15:54 56.04692 66.89375 34772 ft 482 kts 107°
2026-04-25 15:55 56.03732 67.01247 34734 ft 482 kts 107°
2026-04-25 15:55 56.02745 67.13103 34747 ft 482 kts 107°
2026-04-25 15:56 56.01750 67.24955 34760 ft 482 kts 107°
2026-04-25 15:56 56.00741 67.36803 34730 ft 482 kts 108°
2026-04-25 15:57 55.99725 67.48669 34745 ft 483 kts 108°
2026-04-25 15:57 55.98698 67.60541 34754 ft 484 kts 108°
2026-04-25 15:58 55.97654 67.72396 34761 ft 484 kts 108°
2026-04-25 15:58 55.96592 67.84260 34772 ft 484 kts 108°
2026-04-25 15:59 55.95525 67.96114 34771 ft 484 kts 108°
2026-04-25 15:59 55.94443 68.07956 34764 ft 484 kts 108°
2026-04-25 16:00 55.93719 68.15821 34774 ft 485 kts 108°
2026-04-25 16:00 55.92258 68.31631 34782 ft 485 kts 108°
2026-04-25 16:01 55.91148 68.43494 34786 ft 485 kts 108°
2026-04-25 16:01 55.90021 68.55330 34783 ft 484 kts 109°
2026-04-25 16:02 55.88886 68.67155 34755 ft 484 kts 109°
2026-04-25 16:02 55.87737 68.78977 34761 ft 485 kts 109°
2026-04-25 16:03 55.86571 68.90805 34764 ft 485 kts 109°
2026-04-25 16:03 55.85395 69.02623 34770 ft 485 kts 109°
2026-04-25 16:04 55.84217 69.14446 34744 ft 486 kts 109°
2026-04-25 16:04 55.83021 69.26291 34754 ft 486 kts 109°
2026-04-25 16:05 55.81805 69.38136 34764 ft 488 kts 109°
2026-04-25 16:06 55.79976 69.55923 34776 ft 489 kts 109°
2026-04-25 16:06 55.78744 69.67803 34783 ft 489 kts 109°
2026-04-25 16:07 55.77696 69.77752 34785 ft 489 kts 109°
2026-04-25 16:07 55.76436 69.89604 34787 ft 489 kts 109°
2026-04-25 16:08 55.75178 70.01391 34765 ft 489 kts 109°
2026-04-25 16:08 55.73891 70.13312 34765 ft 493 kts 108°
2026-04-25 16:09 55.72579 70.25297 34771 ft 494 kts 108°
2026-04-25 16:09 55.71264 70.37274 34780 ft 495 kts 108°
2026-04-25 16:10 55.69942 70.49248 34787 ft 495 kts 109°
2026-04-25 16:10 55.68601 70.61151 34766 ft 495 kts 109°
2026-04-25 16:11 55.67240 70.73088 34803 ft 493 kts 109°
2026-04-25 16:11 55.65886 70.84992 34814 ft 492 kts 109°
2026-04-25 16:12 55.64525 70.96853 34817 ft 491 kts 109°
2026-04-25 16:12 55.63148 71.08696 34782 ft 490 kts 109°
2026-04-25 16:13 55.61682 71.20465 34211 ft 485 kts 116°
2026-04-25 16:13 55.60469 71.25945 33546 ft 471 kts 126°
2026-04-25 16:13 55.58942 71.31028 32864 ft 467 kts 127°
2026-04-25 16:13 55.57401 71.36090 32202 ft 468 kts 127°
2026-04-25 16:14 55.55860 71.41161 31551 ft 470 kts 127°
2026-04-25 16:14 55.54314 71.46257 30908 ft 472 kts 126°
2026-04-25 16:14 55.52781 71.51313 30290 ft 473 kts 126°
2026-04-25 16:14 55.51226 71.56448 29645 ft 475 kts 126°
2026-04-25 16:15 55.49661 71.61604 28933 ft 477 kts 126°
2026-04-25 16:15 55.48088 71.66761 28236 ft 478 kts 125°
2026-04-25 16:15 55.46509 71.71923 27530 ft 479 kts 125°
2026-04-25 16:15 55.44919 71.77100 26872 ft 480 kts 124°
2026-04-25 16:16 55.43328 71.82269 26232 ft 481 kts 124°
2026-04-25 16:16 55.41730 71.87453 25602 ft 482 kts 124°
2026-04-25 16:16 55.40130 71.92643 24982 ft 483 kts 124°
2026-04-25 16:16 55.38525 71.97846 24321 ft 484 kts 124°
2026-04-25 16:17 55.36915 72.03044 23623 ft 484 kts 123°
2026-04-25 16:17 55.35307 72.08220 22868 ft 479 kts 123°
2026-04-25 16:17 55.33713 72.13339 22091 ft 474 kts 123°
2026-04-25 16:17 55.32139 72.18383 21323 ft 469 kts 123°
2026-04-25 16:18 55.30574 72.23390 20574 ft 465 kts 123°
2026-04-25 16:18 55.30069 72.25004 20335 ft 463 kts 123°
2026-04-25 16:18 55.27504 72.33177 19146 ft 456 kts 123°
2026-04-25 16:18 55.25978 72.38027 18463 ft 452 kts 123°
2026-04-25 16:19 55.24461 72.42831 17732 ft 449 kts 123°
2026-04-25 16:19 55.22952 72.47599 16965 ft 445 kts 123°
2026-04-25 16:19 55.21456 72.52321 16204 ft 441 kts 123°
2026-04-25 16:20 55.18498 72.61634 14760 ft 434 kts 123°
2026-04-25 16:20 55.17034 72.66223 14054 ft 430 kts 123°
2026-04-25 16:20 55.14145 72.75200 12574 ft 417 kts 124°
2026-04-25 16:21 55.12696 72.79570 11868 ft 413 kts 125°
2026-04-25 16:21 55.11283 72.83788 11347 ft 388 kts 125°
2026-04-25 16:21 55.09977 72.87705 10918 ft 358 kts 125°
2026-04-25 16:21 55.08782 72.91332 10729 ft 336 kts 123°
2026-04-25 16:22 55.07906 72.95063 10600 ft 330 kts 111°
2026-04-25 16:22 55.07499 72.98958 10475 ft 324 kts 99°
2026-04-25 16:22 55.07541 73.02855 10314 ft 318 kts 91°
2026-04-25 16:22 55.07705 73.06677 10060 ft 313 kts 91°
2026-04-25 16:23 55.07864 73.10436 9996 ft 310 kts 91°
2026-04-25 16:23 55.08019 73.14189 9907 ft 311 kts 91°
2026-04-25 16:23 55.08169 73.17914 9595 ft 313 kts 91°
2026-04-25 16:23 55.08318 73.21714 9176 ft 312 kts 91°
2026-04-25 16:24 55.08466 73.25467 8752 ft 308 kts 91°
2026-04-25 16:24 55.08614 73.29179 8185 ft 306 kts 91°
2026-04-25 16:24 55.08760 73.32867 7653 ft 303 kts 92°
2026-04-25 16:24 55.08903 73.36524 7091 ft 301 kts 92°
2026-04-25 16:25 55.09039 73.40149 6609 ft 297 kts 92°
2026-04-25 16:25 55.09128 73.42542 6221 ft 298 kts 92°
2026-04-25 16:25 55.09304 73.47320 5555 ft 292 kts 92°
2026-04-25 16:25 55.09438 73.50836 5160 ft 290 kts 91°
2026-04-25 16:26 55.09481 73.54343 4689 ft 286 kts 104°
2026-04-25 16:26 55.08826 73.57502 4226 ft 271 kts 130°
2026-04-25 16:26 55.07539 73.59771 3792 ft 259 kts 153°
2026-04-25 16:26 55.05928 73.60871 3593 ft 239 kts 175°
2026-04-25 16:27 55.04341 73.60882 3513 ft 221 kts 194°
2026-04-25 16:27 55.02903 73.60176 3400 ft 210 kts 200°
2026-04-25 16:27 55.01559 73.59415 3290 ft 196 kts 206°
2026-04-25 16:27 55.00534 73.58012 3183 ft 183 kts 231°
2026-04-25 16:28 55.00019 73.56040 2951 ft 177 kts 253°
2026-04-25 16:28 54.99762 73.54012 2708 ft 170 kts 253°
2026-04-25 16:28 54.99503 73.52030 2488 ft 167 kts 253°
2026-04-25 16:28 54.99243 73.50070 2263 ft 166 kts 253°
2026-04-25 16:29 54.98983 73.48112 2049 ft 167 kts 253°
2026-04-25 16:29 54.98724 73.46155 1935 ft 162 kts 252°
2026-04-25 16:29 54.98493 73.44385 1927 ft 141 kts 252°
2026-04-25 16:29 54.98275 73.42749 1744 ft 136 kts 252°
2026-04-25 16:30 54.98076 73.41160 1442 ft 131 kts 251°
2026-04-25 16:30 54.97861 73.39605 1131 ft 136 kts 252°
2026-04-25 16:30 54.97639 73.37974 909 ft 141 kts 252°
2026-04-25 16:30 54.97413 73.36299 742 ft 144 kts 253°
2026-04-25 16:31 54.97185 73.34584 519 ft 146 kts 253°
2026-04-25 16:31 54.96957 73.32861 352 ft 146 kts 255°
2026-04-25 16:31 54.96749 73.31229 321 ft 126 kts 256°
2026-04-25 16:31 54.96553 73.29613 628 ft 148 kts 255°
2026-04-25 16:32 54.96342 73.27804 1364 ft 157 kts 255°
2026-04-25 16:32 54.96129 73.25806 1978 ft 174 kts 254°
2026-04-25 16:32 54.95947 73.23751 2562 ft 170 kts 255°
2026-04-25 16:32 54.95793 73.21663 2934 ft 178 kts 255°
2026-04-25 16:33 54.95639 73.19416 3002 ft 198 kts 256°
2026-04-25 16:33 54.95454 73.16898 2973 ft 228 kts 256°
2026-04-25 16:33 54.95228 73.14064 3001 ft 244 kts 261°
2026-04-25 16:33 54.95640 73.11142 2978 ft 262 kts 296°
2026-04-25 16:34 54.97057 73.09028 2980 ft 281 kts 332°
2026-04-25 16:34 54.99014 73.08520 2986 ft 291 kts 360°
2026-04-25 16:34 55.01044 73.08697 2980 ft 293 kts
2026-04-25 16:34 55.03082 73.08882 2973 ft 293 kts
2026-04-25 16:35 55.05117 73.09070 2974 ft 292 kts
2026-04-25 16:35 55.07095 73.09336 2967 ft 281 kts
2026-04-25 16:35 55.08957 73.10325 2971 ft 281 kts 28°
2026-04-25 16:35 55.10382 73.12564 2996 ft 275 kts 63°
2026-04-25 16:36 55.11186 73.15558 3000 ft 272 kts 73°
2026-04-25 16:36 55.11419 73.16552 2998 ft 272 kts 73°
2026-04-25 16:36 55.12585 73.21625 2996 ft 271 kts 73°
2026-04-25 16:36 55.13290 73.24716 2996 ft 271 kts 73°
2026-04-25 16:37 55.13980 73.27740 2997 ft 271 kts 73°
2026-04-25 16:37 55.14678 73.30799 2993 ft 270 kts 73°
2026-04-25 16:37 55.15246 73.33915 2999 ft 268 kts 84°
2026-04-25 16:37 55.15347 73.37127 2996 ft 263 kts 101°
2026-04-25 16:38 55.14988 73.40206 2964 ft 257 kts 116°
2026-04-25 16:38 55.14374 73.43110 2881 ft 250 kts 117°
2026-04-25 16:38 55.13788 73.45877 2832 ft 235 kts 116°
2026-04-25 16:38 55.13237 73.48488 2755 ft 225 kts 117°
2026-04-25 16:39 55.12684 73.51072 2672 ft 229 kts 117°
2026-04-25 16:39 55.12124 73.53672 2560 ft 229 kts 117°
2026-04-25 16:39 55.11563 73.56276 2493 ft 227 kts 117°
2026-04-25 16:39 55.11010 73.58860 2493 ft 228 kts 117°
2026-04-25 16:40 55.10453 73.61464 2494 ft 229 kts 117°
2026-04-25 16:40 55.09894 73.64073 2500 ft 230 kts 117°
2026-04-25 16:40 55.09254 73.66609 2491 ft 223 kts 132°
2026-04-25 16:40 55.08104 73.68202 2490 ft 207 kts 167°
2026-04-25 16:41 55.06732 73.68285 2495 ft 197 kts 201°
2026-04-25 16:41 55.06326 73.67970 2491 ft 195 kts 214°
2026-04-25 16:41 55.03805 73.63630 2499 ft 186 kts 225°
2026-04-25 16:42 55.02905 73.62016 2496 ft 185 kts 226°
2026-04-25 16:42 55.02006 73.60428 2498 ft 183 kts 225°
2026-04-25 16:42 55.01116 73.58838 2463 ft 183 kts 228°
2026-04-25 16:42 55.00369 73.57059 2290 ft 182 kts 238°
2026-04-25 16:43 54.99897 73.55076 2115 ft 176 kts 251°
2026-04-25 16:43 54.99629 73.53012 1998 ft 173 kts 252°
2026-04-25 16:43 54.99355 73.50962 1916 ft 175 kts 253°
2026-04-25 16:43 54.99085 73.48918 1909 ft 171 kts 253°
2026-04-25 16:44 54.98820 73.46910 1867 ft 170 kts 253°
2026-04-25 16:44 54.98557 73.44915 1715 ft 168 kts 252°
2026-04-25 16:44 54.98298 73.42957 1503 ft 163 kts 253°
2026-04-25 16:44 54.98046 73.41053 1285 ft 158 kts 251°
2026-04-25 16:45 54.97809 73.39254 1097 ft 144 kts 253°
2026-04-25 16:45 54.97581 73.37570 841 ft 145 kts 253°
2026-04-25 16:45 54.97357 73.35868 666 ft 144 kts 252°
2026-04-25 16:45 54.97137 73.34158 464 ft 144 kts 255°
2026-04-25 16:46 54.96904 73.32458 323 ft 143 kts 255°
2026-04-25 16:46 54.96702 73.30950 310 ft 101 kts 258°
2026-04-25 16:46 54.96577 73.30013 316 ft 69 kts 256°
2026-04-25 16:46 54.96543 73.29757 318 ft 50 kts 257°
2026-04-25 16:47 54.96474 73.29233 319 ft 8 kts 257°
2026-04-25 16:47 54.96450 73.29156 321 ft 6 kts 215°
2026-04-25 16:47 54.96414 73.29153 321 ft 5 kts 169°
2026-04-25 16:47 54.96383 73.29166 321 ft 4 kts 166°
2026-04-25 16:48 54.96340 73.29184 321 ft 11 kts 166°
2026-04-25 16:48 54.96245 73.29223 319 ft 15 kts 167°
2026-04-25 16:48 54.96146 73.29264 321 ft 11 kts 167°
2026-04-25 16:48 54.96083 73.29314 321 ft 9 kts 122°
2026-04-25 16:49 54.96087 73.29420 319 ft 9 kts 77°
2026-04-25 16:49 54.96105 73.29551 319 ft 16 kts 77°
2026-04-25 16:49 54.96134 73.29777 319 ft 20 kts 77°
2026-04-25 16:49 54.96166 73.30009 318 ft 20 kts 76°
2026-04-25 16:50 54.96198 73.30245 317 ft 20 kts 76°
2026-04-25 16:50 54.96229 73.30483 316 ft 20 kts 78°
2026-04-25 16:50 54.96261 73.30722 313 ft 20 kts 77°
2026-04-25 16:50 54.96294 73.30965 313 ft 21 kts 77°
2026-04-25 16:51 54.96326 73.31211 312 ft 21 kts 76°
2026-04-25 16:51 54.96357 73.31437 310 ft 17 kts 77°
2026-04-25 16:51 54.96373 73.31581 311 ft 8 kts 91°
2026-04-25 16:51 54.96368 73.31613 310 ft 8 kts 112°
2026-04-25 16:52 54.96317 73.31708 310 ft 8 kts 136°
2026-04-25 16:52 54.96290 73.31780 310 ft 4 kts 87°
2026-04-25 16:52 54.96299 73.31806 310 ft 4 kts 54°
2026-04-25 16:52 54.96315 73.31840 309 ft 4 kts 50°
2026-04-25 16:53 54.96314 73.31933 308 ft 3 kts 132°
2026-04-25 16:53 54.96304 73.31949 310 ft 0 kts 137°